| time (UTC) | temp F | wind direction | speed MPH | gust MPH | rain 1hr in | rain 24hr in | rain mn in | humidity % | barometer mb |
| 20260831001548 | 65 | 188 | 6.0 | 11.0 | 0.00 | 0.00 | 0.00 | 72 | 1008.6 |
| 20260831000047 | 65 | 198 | 3.0 | 8.0 | 0.00 | 0.00 | 0.00 | 72 | 1008.6 |
| 20260830234546 | 65 | 196 | 5.0 | 7.0 | 0.00 | 0.00 | 0.00 | 72 | 1008.6 |
| 20260830233043 | 65 | 212 | 4.0 | 9.0 | 0.00 | 0.00 | 0.00 | 73 | 1008.7 |
| 20260830231545 | 64 | 223 | 4.0 | 8.0 | 0.00 | 0.00 | 0.00 | 73 | 1008.8 |
| 20260830230041 | 64 | 203 | 3.0 | 7.0 | 0.00 | 0.00 | 0.00 | 73 | 1008.8 |
| 20260830224542 | 64 | 203 | 3.0 | 6.0 | 0.00 | 0.00 | 0.00 | 73 | 1008.8 |
| 20260830223038 | 64 | 203 | 3.0 | 6.0 | 0.00 | 0.00 | 0.00 | 72 | 1008.9 |
| 20260830221536 | 64 | 204 | 3.0 | 6.0 | 0.00 | 0.00 | 0.00 | 72 | 1009.2 |
| 20260830220038 | 64 | 202 | 3.0 | 6.0 | 0.00 | 0.00 | 0.00 | 72 | 1009.2 |
| 20260830214534 | 65 | 201 | 3.0 | 6.0 | 0.00 | 0.00 | 0.00 | 72 | 1009.3 |
| 20260830213033 | 65 | 200 | 4.0 | 7.0 | 0.00 | 0.00 | 0.00 | 71 | 1009.3 |
| 20260830211533 | 65 | 207 | 3.0 | 6.0 | 0.00 | 0.00 | 0.00 | 71 | 1009.3 |
| 20260830210033 | 65 | 207 | 2.0 | 4.0 | 0.00 | 0.00 | 0.00 | 70 | 1009.4 |
| 20260830204535 | 66 | 207 | 2.0 | 4.0 | 0.00 | 0.00 | 0.00 | 69 | 1009.4 |
| 20260830203031 | 66 | 207 | 1.0 | 4.0 | 0.00 | 0.00 | 0.00 | 68 | 1009.3 |
| 20260830201530 | 67 | 207 | 2.0 | 4.0 | 0.00 | 0.00 | 0.00 | 68 | 1009.5 |
| 20260830200030 | 67 | 257 | 1.0 | 3.0 | 0.00 | 0.00 | 0.00 | 67 | 1009.6 |
| 20260830194530 | 67 | 257 | 0.0 | 2.0 | 0.00 | 0.00 | 0.00 | 65 | 1009.7 |
| 20260830193029 | 68 | 257 | 1.0 | 4.0 | 0.00 | 0.00 | 0.00 | 64 | 1009.8 |
| 20260830191531 | 68 | 257 | 1.0 | 3.0 | 0.00 | 0.00 | 0.00 | 63 | 1009.7 |
| 20260830190028 | 69 | 257 | 1.0 | 2.0 | 0.00 | 0.00 | 0.00 | 61 | 1009.8 |
| 20260830184527 | 70 | 257 | 1.0 | 2.0 | 0.00 | 0.00 | 0.00 | 60 | 1009.8 |
| 20260830183027 | 70 | 257 | 1.0 | 3.0 | 0.00 | 0.00 | 0.00 | 60 | 1009.8 |
| 20260830181527 | 71 | 257 | 1.0 | 3.0 | 0.00 | 0.00 | 0.00 | 59 | 1009.9 |
| 20260830180029 | 71 | 257 | 1.0 | 3.0 | 0.00 | 0.00 | 0.00 | 58 | 1009.9 |
| 20260830174543 | 71 | 257 | 2.0 | 7.0 | 0.00 | 0.00 | 0.00 | 58 | 1010.0 |
| 20260830173026 | 72 | 239 | 3.0 | 7.0 | 0.00 | 0.00 | 0.00 | 57 | 1009.9 |
| 20260830171524 | 72 | 236 | 3.0 | 7.0 | 0.00 | 0.00 | 0.00 | 56 | 1009.9 |
| 20260830170024 | 73 | 249 | 3.0 | 11.0 | 0.00 | 0.00 | 0.00 | 55 | 1010.0 |
| 20260830164527 | 74 | 277 | 4.0 | 12.0 | 0.00 | 0.00 | 0.00 | 53 | 1010.0 |
| 20260830163030 | 74 | 245 | 4.0 | 9.0 | 0.00 | 0.00 | 0.00 | 53 | 1010.2 |
| 20260830161522 | 74 | 242 | 4.0 | 10.0 | 0.00 | 0.00 | 0.00 | 53 | 1010.1 |
| 20260830160022 | 74 | 232 | 5.0 | 10.0 | 0.00 | 0.00 | 0.00 | 51 | 1010.0 |
| 20260830154522 | 74 | 221 | 4.0 | 12.0 | 0.00 | 0.00 | 0.00 | 52 | 1010.1 |
| 20260830153030 | 75 | 226 | 5.0 | 12.0 | 0.00 | 0.00 | 0.00 | 51 | 1010.1 |
| 20260830151532 | 75 | 207 | 6.0 | 11.0 | 0.00 | 0.00 | 0.00 | 51 | 1010.1 |
| 20260830150020 | 76 | 235 | 4.0 | 13.0 | 0.00 | 0.00 | 0.00 | 51 | 1010.1 |
| 20260830144520 | 76 | 245 | 6.0 | 13.0 | 0.00 | 0.00 | 0.00 | 50 | 1010.2 |
| 20260830143018 | 76 | 215 | 5.0 | 13.0 | 0.00 | 0.00 | 0.00 | 49 | 1010.3 |
| 20260830141518 | 76 | 246 | 7.0 | 12.0 | 0.00 | 0.00 | 0.00 | 48 | 1010.3 |
| 20260830140017 | 77 | 251 | 5.0 | 15.0 | 0.00 | 0.00 | 0.00 | 48 | 1010.3 |
| 20260830134518 | 77 | 217 | 8.0 | 17.0 | 0.00 | 0.00 | 0.00 | 48 | 1010.4 |
| 20260830133020 | 76 | 273 | 6.0 | 17.0 | 0.00 | 0.00 | 0.00 | 49 | 1010.5 |
| 20260830131510 | 76 | 225 | 8.0 | 18.0 | 0.00 | 0.00 | 0.00 | 49 | 1010.5 |
| 20260830130009 | 76 | 236 | 10.0 | 17.0 | 0.00 | 0.00 | 0.00 | 50 | 1010.5 |
| 20260830124509 | 76 | 256 | 8.0 | 19.0 | 0.00 | 0.00 | 0.00 | 50 | 1010.4 |
| 20260830123007 | 75 | 171 | 6.0 | 14.0 | 0.00 | 0.00 | 0.00 | 52 | 1010.4 |
| 20260830121505 | 74 | 223 | 4.0 | 16.0 | 0.00 | 0.00 | 0.00 | 51 | 1010.5 |
| 20260830120005 | 75 | 238 | 8.0 | 14.0 | 0.00 | 0.00 | 0.00 | 51 | 1010.2 |
| 20260830114504 | 75 | 219 | 4.0 | 23.0 | 0.00 | 0.00 | 0.00 | 53 | 1010.3 |
| 20260830113004 | 75 | 216 | 4.0 | 14.0 | 0.00 | 0.00 | 0.00 | 51 | 1010.2 |
| 20260830111504 | 75 | 234 | 4.0 | 13.0 | 0.00 | 0.00 | 0.00 | 51 | 1010.2 |
| 20260830110002 | 75 | 237 | 8.0 | 14.0 | 0.00 | 0.00 | 0.00 | 51 | 1010.2 |
| 20260830104606 | 74 | 221 | 11.0 | 19.0 | 0.00 | 0.00 | 0.00 | 53 | 1010.1 |
| 20260830103057 | 73 | 232 | 5.0 | 15.0 | 0.00 | 0.00 | 0.00 | 54 | 1010.3 |
| 20260830101601 | 73 | 277 | 3.0 | 12.0 | 0.00 | 0.00 | 0.00 | 56 | 1010.3 |
| 20260830100052 | 72 | 257 | 4.0 | 14.0 | 0.00 | 0.00 | 0.00 | 57 | 1010.3 |
| 20260830094555 | 71 | 229 | 3.0 | 12.0 | 0.00 | 0.00 | 0.00 | 59 | 1010.3 |
| 20260830093051 | 72 | 269 | 9.0 | 18.0 | 0.00 | 0.00 | 0.00 | 58 | 1010.3 |
| 20260830091547 | 71 | 236 | 6.0 | 18.0 | 0.00 | 0.00 | 0.00 | 59 | 1010.2 |
| 20260830090046 | 71 | 214 | 7.0 | 14.0 | 0.00 | 0.00 | 0.00 | 60 | 1010.3 |
| 20260830084543 | 72 | 274 | 7.0 | 17.0 | 0.00 | 0.00 | 0.00 | 60 | 1010.1 |
| 20260830083046 | 70 | 215 | 8.0 | 21.0 | 0.00 | 0.00 | 0.00 | 63 | 1009.9 |
| 20260830081538 | 70 | 229 | 7.0 | 19.0 | 0.00 | 0.00 | 0.00 | 63 | 1009.9 |
| 20260830080040 | 70 | 184 | 9.0 | 21.0 | 0.00 | 0.00 | 0.00 | 64 | 1009.7 |
| 20260830074537 | 69 | 238 | 7.0 | 17.0 | 0.00 | 0.00 | 0.00 | 66 | 1009.6 |
| 20260830073027 | 68 | 223 | 8.0 | 19.0 | 0.00 | 0.00 | 0.00 | 67 | 1009.5 |
| 20260830071541 | 68 | 209 | 7.0 | 15.0 | 0.00 | 0.00 | 0.00 | 68 | 1009.4 |
| 20260830070023 | 67 | 238 | 7.0 | 15.0 | 0.00 | 0.00 | 0.00 | 70 | 1009.4 |
| 20260830064515 | 66 | 218 | 5.0 | 12.0 | 0.00 | 0.00 | 0.00 | 73 | 1009.3 |
| 20260830063013 | 65 | 229 | 5.0 | 12.0 | 0.00 | 0.00 | 0.00 | 74 | 1009.1 |
| 20260830061511 | 65 | 219 | 5.0 | 12.0 | 0.00 | 0.00 | 0.00 | 75 | 1009.0 |
| 20260830060009 | 64 | 242 | 5.0 | 15.0 | 0.00 | 0.00 | 0.00 | 77 | 1008.9 |
| 20260830054507 | 64 | 255 | 3.0 | 8.0 | 0.00 | 0.00 | 0.00 | 80 | 1008.8 |
| 20260830053005 | 63 | 218 | 3.0 | 7.0 | 0.00 | 0.00 | 0.00 | 83 | 1008.6 |
| 20260830051600 | 63 | 214 | 3.0 | 7.0 | 0.00 | 0.00 | 0.00 | 83 | 1008.5 |
| 20260830050116 | 63 | 213 | 2.0 | 5.0 | 0.00 | 0.00 | 0.00 | 82 | 1008.4 |
| 20260830044552 | 64 | 232 | 3.0 | 7.0 | 0.00 | 0.00 | 0.00 | 80 | 1008.2 |
| 20260830043052 | 64 | 226 | 3.0 | 7.0 | 0.00 | 0.00 | 0.00 | 78 | 1008.2 |
| 20260830041613 | 65 | 244 | 3.0 | 8.0 | 0.00 | 0.00 | 0.00 | 76 | 1008.1 |
| 20260830040048 | 66 | 214 | 2.0 | 12.0 | 0.00 | 0.00 | 0.00 | 74 | 1008.1 |
| 20260830034546 | 65 | 244 | 4.0 | 12.0 | 0.00 | 0.00 | 0.00 | 74 | 1008.0 |
| 20260830033043 | 65 | 248 | 8.0 | 16.0 | 0.00 | 0.00 | 0.00 | 77 | 1008.0 |
| 20260830031541 | 65 | 232 | 3.0 | 9.0 | 0.00 | 0.00 | 0.00 | 82 | 1008.0 |
| 20260830030043 | 65 | 215 | 3.0 | 7.0 | 0.00 | 0.00 | 0.00 | 84 | 1007.9 |
| 20260830024547 | 65 | 244 | 2.0 | 5.0 | 0.00 | 0.00 | 0.00 | 84 | 1007.8 |
| 20260830023037 | 65 | 220 | 3.0 | 7.0 | 0.00 | 0.00 | 0.00 | 84 | 1007.6 |
| 20260830021552 | 65 | 219 | 3.0 | 6.0 | 0.00 | 0.00 | 0.00 | 83 | 1007.6 |
| 20260830020037 | 66 | 220 | 2.0 | 7.0 | 0.00 | 0.00 | 0.00 | 82 | 1007.5 |
| 20260830014535 | 66 | 211 | 4.0 | 8.0 | 0.00 | 0.00 | 0.00 | 81 | 1007.5 |
| 20260830013033 | 66 | 221 | 4.0 | 8.0 | 0.00 | 0.00 | 0.00 | 81 | 1007.4 |
| 20260830011536 | 66 | 238 | 4.0 | 10.0 | 0.00 | 0.00 | 0.00 | 80 | 1007.3 |
| 20260830010044 | 66 | 221 | 4.0 | 12.0 | 0.00 | 0.00 | 0.00 | 80 | 1007.3 |
| 20260830004534 | 66 | 236 | 5.0 | 11.0 | 0.00 | 0.00 | 0.00 | 81 | 1007.3 |
| 20260830003030 | 66 | 242 | 5.0 | 10.0 | 0.00 | 0.00 | 0.00 | 81 | 1007.2 |